Location: Fort Wayne
(41.1310°N, 85.1290°W)
Time: 03:21:30
(UTC-04:00)

IDEFIX/ARIANE 42P - Visible Passes

Search period start: 29 August 2015 00:00
Search period end: 08 September 2015 00:00
Orbit: 785 x 804 km, 98.3° (Epoch: 28 August)

Date Brightness Start Highest point End Pass type
(mag) Time Alt. Az. Time Alt. Az. Time Alt. Az.
29 Aug 5.3 21:46:19 10° SW 21:49:38 16° W 21:52:45 10° NW visible
30 Aug 4.5 21:16:30 10° SSW 21:21:02 30° W 21:25:32 10° NW visible
31 Aug 3.4 20:47:31 10° S 20:52:35 55° W 20:57:41 10° NNW visible
01 Sep 5.6 22:02:52 10° WSW 22:04:40 11° W 22:06:08 10° WNW visible
02 Sep 5.0 21:31:58 10° SW 21:35:58 22° W 21:39:51 10° NW visible
03 Sep 4.0 21:02:36 10° SSW 21:07:27 39° W 21:12:17 10° NNW visible
04 Sep 2.9 20:33:54 10° S 20:39:04 73° WSW 20:44:16 10° NNW visible
05 Sep 5.3 21:47:49 10° SW 21:50:58 16° W 21:53:54 10° NW visible
06 Sep 4.6 21:17:52 10° SSW 21:22:21 28° W 21:26:46 10° NW visible
07 Sep 3.5 20:48:50 10° S 20:53:53 52° W 20:58:58 10° NNW visible
